Theta_e
291 293 293 294 295 295 294 294 294 294 294 293 293 292 291 289 288 286 286 286 285 286 286 285 285 285 285 285 285 285 285 285 283 285 284 284 284 284 285 285 286 285 285
290 290 291 291 291 291 292 293 293 293 293 293 292 291 291 290 289 287 287 287 285 285 285 285 285 287 284 284 284 284 285 284 284 283 282 282 282 283 283 282 285 287 284
289 289 289 289 289 289 290 291 292 292 292 292 292 291 291 290 289 288 287 287 286 286 286 285 285 284 284 284 284 285 284 285 282 282 282 281 281 281 281 282 282 283 285
288 287 287 287 288 288 289 289 290 290 290 290 291 291 291 290 290 289 288 286 286 286 286 286 285 285 285 284 284 285 285 283 281 281 281 281 280 281 281 280 280 281 282
286 286 286 287 287 288 288 288 288 288 289 289 289 290 290 290 290 288 287 287 286 286 286 285 286 287 290 288 286 285 285 282 282 281 280 280 280 280 280 281 280 280 281
285 285 287 287 287 287 287 287 287 287 287 287 287 287 288 290 294 295 296 292 286 285 285 284 285 289 290 293 293 291 287 284 283 281 281 280 280 280 280 280 280 278 280
285 285 286 286 286 286 286 286 286 286 286 286 286 287 287 288 293 294 295 293 291 287 285 285 284 286 289 287 292 294 293 292 289 284 281 280 279 280 280 280 279 279 282
285 285 286 286 285 286 285 285 285 285 285 285 286 286 286 287 292 293 294 291 291 290 287 285 284 284 285 287 287 288 289 289 290 290 285 285 283 282 282 282 281 284 282
284 285 286 286 285 285 285 284 285 284 284 284 285 285 285 286 291 292 291 289 288 288 289 286 285 284 288 291 286 285 285 285 289 292 290 289 289 290 288 285 283 278 277
285 285 286 285 285 284 284 284 283 283 284 284 284 285 287 286 289 291 291 288 287 288 288 287 290 288 290 291 288 285 283 283 284 283 283 287 289 287 290 285 281 278 278
285 285 285 284 283 283 283 284 283 283 283 283 283 284 284 285 285 291 292 289 287 287 287 287 286 291 293 291 292 286 285 286 286 283 283 283 282 282 282 282 282 281 278
283 283 283 283 283 284 283 283 282 281 281 282 282 283 286 287 289 290 292 292 291 287 287 289 288 290 291 292 291 291 291 290 284 283 282 282 282 282 282 282 281 280 281
281 281 282 283 283 283 282 281 282 282 281 281 283 284 285 287 288 291 291 291 291 288 288 291 292 289 291 291 293 293 292 288 284 282 282 282 283 283 282 280 281 281 281
280 281 282 281 282 283 283 283 282 282 281 282 283 284 285 286 287 288 288 289 290 287 288 288 290 289 290 289 289 290 288 286 285 284 283 284 282 280 279 280 279 279 279
280 281 281 281 281 282 283 283 283 284 284 283 285 286 285 285 287 290 291 289 289 290 288 286 285 285 285 285 284 284 284 285 284 283 282 281 281 280 279 280 279 278 277
280 280 281 282 282 282 282 282 287 288 289 290 291 290 288 290 291 291 292 291 291 291 289 285 284 285 284 283 283 283 284 284 283 282 282 281 279 278 278 278 278 277 275
280 280 280 282 281 281 282 281 282 285 289 290 291 291 291 290 291 291 291 290 291 291 286 285 283 284 284 283 283 283 282 282 282 282 281 279 277 275 279 277 276 277 274
280 283 281 281 281 281 281 282 284 284 283 283 288 289 290 290 291 290 290 290 285 287 285 284 282 283 283 283 283 282 282 281 281 280 278 276 275 272 271 272 274 274 273
280 280 280 281 281 283 284 285 284 284 283 284 284 287 288 290 290 289 289 284 283 284 284 284 283 283 283 282 282 282 281 280 280 278 277 275 273 272 269 271 273 278 277
280 283 284 282 283 283 283 283 283 284 284 284 284 285 286 286 285 285 285 284 283 283 284 284 283 283 283 282 282 281 280 281 280 277 276 274 273 274 272 272 273 272 272
280 281 284 282 282 283 284 284 284 284 284 285 285 286 289 286 285 285 284 284 284 283 284 284 284 283 283 282 281 280 279 279 278 276 273 273 274 274 273 273 272 274 272
280 280 281 281 283 284 284 285 285 285 284 284 285 285 288 286 285 285 283 284 284 284 285 285 284 284 283 282 281 280 279 277 275 273 273 274 274 274 274 272 272 272 272
280 280 281 282 284 285 284 285 284 283 283 283 284 284 284 285 285 284 283 284 283 284 284 284 284 283 283 283 282 280 277 276 275 274 274 274 274 274 274 271 271 272 273
280 281 283 283 283 283 284 283 283 284 283 283 283 283 284 284 284 283 283 283 283 282 281 282 283 282 281 280 279 278 277 276 276 276 275 275 274 277 273 270 272 273 273
282 282 283 283 283 284 282 282 283 282 282 281 281 282 282 283 284 282 282 283 282 279 278 279 281 281 279 279 277 277 277 281 276 277 277 275 273 273 272 272 274 273 274
282 281 282 282 283 283 282 282 280 280 279 280 280 280 281 282 282 282 282 280 278 278 277 279 279 279 279 278 277 277 282 282 280 281 277 274 272 272 273 273 274 274 274
Wind_Speed
6 6 6 6 6 5 4 5 6 5 6 7 7 7 7 7 7 8 9 8 9 9 7 7 10 6 5 5 4 4 5 5 8 5 4 3 3 3 3 3 4 4 3
6 6 6 6 6 6 6 6 6 7 6 7 6 7 7 7 7 9 10 10 11 11 12 9 12 7 9 7 6 8 7 6 6 11 3 3 5 3 3 4 3 3 3
6 7 7 7 7 7 7 7 6 7 7 7 6 7 7 8 8 8 10 11 12 13 12 12 13 10 11 7 9 9 7 6 6 5 5 3 3 2 2 3 3 4 3
6 5 6 6 6 6 7 7 7 7 7 7 7 7 7 8 9 9 9 11 12 12 13 13 13 13 13 12 10 11 8 7 5 5 5 4 4 4 2 3 3 2 4
6 6 7 6 6 6 7 7 7 7 7 7 8 9 7 7 7 8 9 11 12 13 13 13 13 16 22 18 9 11 11 8 6 6 5 3 3 2 4 2 3 3 4
6 6 6 6 7 7 7 7 7 7 8 7 8 8 9 8 18 21 18 11 12 13 13 13 13 19 21 25 26 22 15 11 10 6 5 6 5 4 3 3 2 1 3
6 6 6 6 7 7 8 8 10 9 8 9 9 9 12 11 22 24 24 13 12 12 13 13 11 11 19 14 23 25 23 22 17 10 8 8 5 6 4 3 4 4 4
6 6 6 6 7 8 8 9 10 9 10 10 11 10 11 11 23 26 26 15 12 13 13 14 14 12 12 13 13 13 13 12 14 11 10 8 7 6 6 5 5 3 2
5 6 7 7 8 9 10 11 10 9 10 10 10 12 12 13 23 26 23 13 13 14 12 13 14 14 20 25 12 13 12 9 10 16 14 14 13 13 10 5 4 2 3
5 7 7 7 9 10 10 11 7 9 10 10 13 12 16 15 22 25 21 10 14 12 12 12 23 19 23 25 15 13 12 10 8 5 3 10 12 7 11 5 4 3 2
6 7 8 8 9 9 7 9 9 12 12 12 13 11 11 12 14 24 25 13 12 12 12 11 10 23 26 24 24 12 12 9 12 7 6 5 4 4 4 4 5 4 4
6 8 9 9 8 9 10 11 10 10 11 12 12 12 10 12 18 19 25 24 21 14 13 12 12 21 20 22 19 21 20 15 6 6 6 5 5 5 4 4 5 5 4
7 9 9 9 10 10 10 11 9 9 8 9 10 11 13 13 13 25 25 24 23 14 10 17 20 19 19 19 24 19 20 9 7 6 6 6 6 5 3 3 3 4 4
8 9 9 8 11 9 7 8 8 8 8 9 9 10 12 14 14 11 10 11 14 12 13 10 13 14 15 10 11 12 7 5 7 7 7 5 3 3 3 4 3 3 2
7 8 8 8 9 10 9 9 9 10 11 10 10 11 11 13 13 23 21 14 13 13 13 5 6 5 6 5 4 4 3 5 7 6 5 5 4 4 4 4 3 3 4
8 7 7 8 8 8 9 11 17 20 23 23 24 17 13 20 27 28 28 27 28 27 9 5 6 6 6 6 6 6 5 7 4 5 4 5 5 5 4 2 2 3 3
8 9 8 9 8 9 9 9 12 16 20 20 20 21 22 24 26 25 26 26 26 23 6 6 5 5 5 6 7 7 6 6 5 4 5 5 4 4 6 4 3 4 3
8 17 9 8 9 9 9 10 9 11 14 15 14 19 21 24 24 24 25 22 11 9 5 7 5 5 4 5 6 6 5 5 5 5 5 5 5 4 3 3 3 4 3
8 8 8 9 9 12 10 11 10 11 11 13 14 15 17 21 24 26 20 7 8 8 6 6 5 6 5 5 5 5 5 5 5 5 4 5 5 4 3 3 4 9 8
8 18 15 9 10 10 10 11 11 12 12 12 12 12 13 13 10 10 8 7 7 8 7 7 5 6 6 6 6 5 5 6 5 5 5 5 5 5 4 4 4 4 3
8 9 16 9 8 11 11 11 11 11 11 11 12 13 23 12 11 11 8 8 7 7 7 6 5 6 6 6 6 6 6 5 5 5 4 5 5 5 4 4 4 4 3
7 8 8 9 11 11 10 11 10 11 12 13 12 15 17 11 10 10 8 8 7 7 6 6 6 5 6 7 6 6 6 5 5 4 5 5 5 5 4 3 3 3 3
7 9 10 10 11 16 13 11 9 12 12 13 13 11 13 9 9 9 7 9 7 7 6 5 5 4 5 5 5 6 6 6 6 6 6 6 5 5 4 3 3 3 4
7 9 11 11 11 13 12 11 12 16 16 14 11 11 10 9 11 8 7 8 6 6 5 4 3 5 5 4 4 4 3 4 5 6 8 6 6 7 4 3 3 5 5
8 9 11 11 13 13 11 13 13 10 12 12 12 9 11 13 8 6 7 7 5 4 4 3 2 4 5 6 6 6 7 11 7 7 5 6 6 6 3 3 4 4 6
9 10 10 11 11 11 12 9 11 12 11 10 11 11 10 9 8 6 8 5 4 3 2 2 3 4 5 5 6 8 11 12 9 11 6 5 5 4 3 5 7 6 7
Wind_Direction
358 354 8 5 5 359 334 311 298 290 280 271 267 264 252 245 231 225 233 232 222 236 226 219 235 204 221 213 204 202 211 195 234 267 233 234 271 279 306 303 292 278 287
349 4 14 13 10 10 352 334 326 313 304 286 285 275 267 253 243 228 238 237 224 230 232 215 233 215 223 212 206 216 215 199 211 250 241 245 232 246 269 281 286 274 284
3 8 8 9 4 352 341 331 328 322 315 309 293 283 277 268 257 243 236 243 233 233 230 218 227 205 223 212 212 219 215 216 204 218 258 226 252 248 288 272 267 275 270
354 1 5 355 346 339 328 327 324 319 313 311 303 286 277 275 268 260 246 243 242 240 236 229 226 213 219 214 214 217 214 213 200 221 238 248 230 246 229 256 285 251 283
357 360 349 334 332 327 328 323 315 311 310 296 301 307 295 287 280 273 257 253 248 247 240 235 230 222 219 214 205 211 205 207 207 218 232 214 223 227 228 223 248 265 272
353 344 325 331 334 323 309 302 302 301 308 308 308 302 301 298 302 302 295 270 251 248 250 243 237 232 229 227 224 219 206 200 212 205 220 223 226 209 210 222 225 286 313
341 332 334 323 307 301 305 313 318 315 305 305 304 304 304 299 302 302 298 288 274 248 246 249 242 234 226 219 228 226 223 218 214 202 213 209 205 200 197 212 219 212 238
324 316 301 293 305 312 311 308 307 308 304 299 294 287 290 293 299 304 303 294 281 266 242 240 239 238 224 213 213 216 218 218 217 216 210 215 206 195 198 205 211 234 266
295 291 311 314 308 311 311 307 302 298 301 299 298 298 296 296 300 306 309 302 290 279 264 242 236 233 231 228 211 210 214 219 224 231 215 217 221 228 223 204 205 189 266
304 307 299 300 298 296 292 293 290 294 295 302 301 295 290 294 294 302 308 297 298 292 280 255 245 237 237 229 209 204 209 212 197 205 223 241 232 240 252 181 173 190 186
294 295 296 288 279 279 279 296 300 302 301 296 292 291 285 280 286 299 306 304 298 297 289 272 250 243 238 234 221 196 207 192 199 202 204 207 202 211 220 207 191 182 184
289 291 286 287 292 299 295 293 289 287 291 295 300 298 296 290 289 296 303 305 302 302 291 276 261 248 245 231 225 216 214 211 184 190 190 200 203 206 211 201 206 203 209
287 283 288 293 290 286 281 282 287 286 283 287 292 300 304 305 305 306 307 308 303 295 289 289 263 250 235 235 233 219 213 201 177 179 195 205 196 201 173 182 187 198 209
276 281 286 284 289 283 275 277 274 277 276 279 290 294 300 306 309 310 303 298 293 282 284 291 275 230 220 219 223 231 204 190 178 186 193 184 147 154 184 171 163 175 189
276 280 283 281 280 283 279 279 278 272 269 280 286 293 300 303 304 303 306 307 303 295 268 269 269 226 210 198 186 178 165 186 192 169 161 162 177 181 195 173 175 163 196
290 287 281 289 289 284 288 293 284 288 292 289 285 283 288 294 302 305 307 307 307 302 280 255 249 233 208 189 182 185 190 197 174 155 158 171 185 187 188 160 152 167 201
277 286 283 286 282 284 284 285 294 305 297 295 287 290 290 293 297 301 305 304 307 303 265 261 240 216 207 195 184 179 183 196 155 170 183 187 173 179 206 179 176 190 200
273 281 284 277 278 281 278 278 283 292 301 305 293 292 294 292 297 307 310 316 310 287 253 259 220 199 195 191 180 173 166 165 176 180 183 181 176 156 154 165 176 185 192
281 279 276 275 275 275 279 283 285 284 284 289 300 297 297 297 306 307 305 288 290 295 275 240 203 203 196 187 181 174 172 184 185 168 183 177 175 155 173 169 187 223 228
276 279 287 283 283 286 287 286 291 291 289 287 292 291 305 300 298 300 303 283 277 280 278 255 208 205 197 189 183 176 179 194 184 175 180 175 174 179 176 179 189 198 225
275 283 287 289 291 294 285 287 286 284 289 289 290 284 289 299 299 298 294 293 281 272 271 253 224 202 195 187 178 175 184 185 175 169 165 170 170 180 174 180 189 204 202
272 278 286 284 292 288 285 285 280 289 293 294 297 293 291 294 287 285 281 288 276 270 259 253 243 210 192 185 180 177 180 181 171 165 164 164 172 170 171 175 188 195 208
274 282 288 288 286 295 289 282 293 293 292 292 293 293 292 278 282 277 276 287 273 271 256 240 242 195 179 175 172 173 178 186 183 169 165 167 173 173 172 173 181 199 221
265 271 282 289 297 294 286 298 293 291 293 293 296 299 292 304 285 268 279 284 271 259 249 239 212 181 167 162 163 163 150 147 156 172 159 165 170 187 163 165 182 215 234
265 276 287 294 294 288 294 292 290 293 303 300 295 293 299 289 271 264 276 274 268 240 229 199 177 170 172 168 164 160 176 177 155 149 153 155 160 170 170 176 209 226 237
278 278 281 288 286 290 292 296 304 299 295 301 296 291 286 299 288 284 283 263 249 235 196 176 189 175 163 161 159 164 175 170 166 168 151 145 150 167 186 214 231 237 244